| time (UTC) | temp C | wind direction | speed KPH | gust KPH | rain 1hr cm | rain 24hr cm | rain mn cm | humidity % | barometer mb |
| 20260504050506 | 14 | 195 | 0.0 | 0.0 | 0.00 | 0.00 | 0.00 | 84 | 1018.4 |
| 20260504050013 | 14 | 195 | 0.0 | 0.0 | 0.00 | 0.00 | 0.00 | 83 | 1018.4 |
| 20260504045506 | 14 | 195 | 0.0 | 0.0 | 0.00 | 0.00 | 0.00 | 83 | 1018.4 |
| 20260504043507 | 15 | 195 | 0.0 | 0.0 | 0.00 | 0.00 | 0.00 | 83 | 1018.4 |
| 20260504041507 | 15 | 195 | 0.0 | 0.0 | 0.00 | 0.00 | 0.00 | 83 | 1018.5 |
| 20260504041008 | 15 | 195 | 0.0 | 0.0 | 0.00 | 0.00 | 0.00 | 83 | 1018.6 |
| 20260504040506 | 15 | 195 | 0.0 | 0.0 | 0.00 | 0.00 | 0.00 | 83 | 1018.5 |
| 20260504040010 | 15 | 195 | 0.0 | 0.0 | 0.00 | 0.00 | 0.00 | 83 | 1018.5 |
| 20260504035007 | 15 | 195 | 0.0 | 3.2 | 0.00 | 0.00 | 0.00 | 83 | 1018.6 |
| 20260504034508 | 15 | 194 | 0.0 | 3.2 | 0.00 | 0.00 | 0.00 | 82 | 1018.6 |
| 20260504034009 | 15 | 231 | 0.0 | 3.2 | 0.00 | 0.00 | 0.00 | 82 | 1018.6 |
| 20260504033507 | 15 | 231 | 0.0 | 3.2 | 0.00 | 0.00 | 0.00 | 82 | 1018.6 |
| 20260504033010 | 15 | 220 | 0.0 | 3.2 | 0.00 | 0.00 | 0.00 | 82 | 1018.6 |
| 20260504032507 | 15 | 201 | 0.0 | 1.6 | 0.00 | 0.00 | 0.00 | 81 | 1018.6 |
| 20260504032009 | 15 | 201 | 0.0 | 3.2 | 0.00 | 0.00 | 0.00 | 81 | 1018.5 |
| 20260504031507 | 15 | 55 | 0.0 | 0.0 | 0.00 | 0.00 | 0.00 | 81 | 1018.5 |
| 20260504031010 | 16 | 55 | 0.0 | 0.0 | 0.00 | 0.00 | 0.00 | 81 | 1018.5 |
| 20260504030010 | 16 | 55 | 0.0 | 0.0 | 0.00 | 0.00 | 0.00 | 80 | 1018.5 |
| 20260504025507 | 16 | 56 | 0.0 | 0.0 | 0.00 | 0.00 | 0.00 | 80 | 1018.3 |
| 20260504025009 | 16 | 56 | 0.0 | 0.0 | 0.00 | 0.00 | 0.00 | 80 | 1018.3 |
| 20260504024508 | 16 | 56 | 0.0 | 0.0 | 0.00 | 0.00 | 0.00 | 80 | 1018.3 |
| 20260504024008 | 16 | 44 | 0.0 | 0.0 | 0.00 | 0.00 | 0.00 | 79 | 1018.3 |
| 20260504023508 | 16 | 44 | 0.0 | 0.0 | 0.00 | 0.00 | 0.00 | 79 | 1018.2 |
| 20260504022009 | 16 | 43 | 0.0 | 0.0 | 0.00 | 0.00 | 0.00 | 78 | 1018.2 |
| 20260504021508 | 17 | 43 | 0.0 | 0.0 | 0.00 | 0.00 | 0.00 | 78 | 1018.1 |
| 20260504021008 | 17 | 43 | 0.0 | 0.0 | 0.00 | 0.00 | 0.00 | 77 | 1018.1 |
| 20260504020506 | 17 | 43 | 0.0 | 0.0 | 0.00 | 0.00 | 0.00 | 77 | 1018.0 |
| 20260504020010 | 17 | 43 | 0.0 | 0.0 | 0.00 | 0.00 | 0.00 | 76 | 1018.0 |
| 20260504015507 | 17 | 43 | 0.0 | 0.0 | 0.00 | 0.00 | 0.00 | 75 | 1017.9 |
| 20260504015008 | 17 | 43 | 0.0 | 0.0 | 0.00 | 0.00 | 0.00 | 75 | 1017.7 |
| 20260504014007 | 18 | 43 | 0.0 | 0.0 | 0.00 | 0.00 | 0.00 | 74 | 1017.7 |
| 20260504013506 | 18 | 43 | 0.0 | 0.0 | 0.00 | 0.00 | 0.00 | 74 | 1017.6 |
| 20260504013008 | 18 | 43 | 0.0 | 0.0 | 0.00 | 0.00 | 0.00 | 74 | 1017.6 |
| 20260504012507 | 18 | 43 | 0.0 | 0.0 | 0.00 | 0.00 | 0.00 | 73 | 1017.6 |
| 20260504012008 | 18 | 43 | 0.0 | 1.6 | 0.00 | 0.00 | 0.00 | 72 | 1017.5 |
| 20260504011507 | 19 | 43 | 0.0 | 1.6 | 0.00 | 0.00 | 0.00 | 72 | 1017.4 |
| 20260504011008 | 19 | 43 | 0.0 | 0.0 | 0.00 | 0.00 | 0.00 | 72 | 1017.4 |
| 20260504010507 | 19 | 43 | 0.0 | 0.0 | 0.00 | 0.00 | 0.00 | 71 | 1017.1 |
| 20260504010009 | 20 | 43 | 0.0 | 0.0 | 0.00 | 0.00 | 0.00 | 70 | 1017.0 |
| 20260504005506 | 20 | 43 | 0.0 | 0.0 | 0.00 | 0.00 | 0.00 | 69 | 1017.1 |
| 20260504005007 | 20 | 43 | 0.0 | 0.0 | 0.00 | 0.00 | 0.00 | 69 | 1016.9 |
| 20260504004507 | 20 | 43 | 0.0 | 0.0 | 0.00 | 0.00 | 0.00 | 68 | 1017.0 |
| 20260504004008 | 20 | 43 | 0.0 | 0.0 | 0.00 | 0.00 | 0.00 | 68 | 1017.0 |
| 20260504003507 | 21 | 43 | 0.0 | 1.6 | 0.00 | 0.00 | 0.00 | 68 | 1017.1 |
| 20260504003009 | 21 | 43 | 0.0 | 1.6 | 0.00 | 0.00 | 0.00 | 67 | 1017.0 |
| 20260504002506 | 21 | 43 | 0.0 | 0.0 | 0.00 | 0.00 | 0.00 | 67 | 1017.1 |
| 20260504002008 | 21 | 43 | 0.0 | 0.0 | 0.00 | 0.00 | 0.00 | 66 | 1017.1 |
| 20260504001507 | 21 | 43 | 0.0 | 0.0 | 0.00 | 0.00 | 0.00 | 66 | 1017.1 |
| 20260504001010 | 21 | 43 | 0.0 | 0.0 | 0.00 | 0.00 | 0.00 | 64 | 1017.3 |
| 20260504000011 | 22 | 37 | 0.0 | 1.6 | 0.00 | 0.00 | 0.00 | 63 | 1017.1 |
| 20260503235007 | 22 | 40 | 0.0 | 0.0 | 0.00 | 0.00 | 0.00 | 61 | 1017.4 |
| 20260503234008 | 22 | 40 | 0.0 | 1.6 | 0.00 | 0.00 | 0.00 | 56 | 1017.4 |
| 20260503233008 | 23 | 40 | 0.0 | 1.6 | 0.00 | 0.00 | 0.00 | 53 | 1017.6 |
| 20260503232507 | 23 | 40 | 0.0 | 1.6 | 0.00 | 0.00 | 0.00 | 50 | 1017.7 |
| 20260503232008 | 23 | 40 | 0.0 | 1.6 | 0.00 | 0.00 | 0.00 | 50 | 1017.6 |
| 20260503231508 | 23 | 40 | 0.0 | 1.6 | 0.00 | 0.00 | 0.00 | 50 | 1017.7 |
| 20260503231008 | 23 | 40 | 0.0 | 1.6 | 0.00 | 0.00 | 0.00 | 49 | 1017.8 |
| 20260503230506 | 23 | 40 | 0.0 | 1.6 | 0.00 | 0.00 | 0.00 | 50 | 1017.8 |
| 20260503230012 | 23 | 40 | 0.0 | 1.6 | 0.00 | 0.00 | 0.00 | 49 | 1017.9 |
| 20260503225507 | 23 | 40 | 0.0 | 1.6 | 0.00 | 0.00 | 0.00 | 50 | 1017.9 |
| 20260503225008 | 23 | 40 | 0.0 | 1.6 | 0.00 | 0.00 | 0.00 | 50 | 1017.9 |
| 20260503224509 | 23 | 40 | 0.0 | 3.2 | 0.00 | 0.00 | 0.00 | 49 | 1017.8 |
| 20260503224009 | 23 | 40 | 0.0 | 3.2 | 0.00 | 0.00 | 0.00 | 49 | 1017.9 |
| 20260503223507 | 23 | 192 | 0.0 | 0.0 | 0.00 | 0.00 | 0.00 | 50 | 1018.0 |
| 20260503223009 | 23 | 192 | 0.0 | 0.0 | 0.00 | 0.00 | 0.00 | 52 | 1018.1 |
| 20260503222506 | 23 | 205 | 0.0 | 0.0 | 0.00 | 0.00 | 0.00 | 50 | 1018.1 |
| 20260503222009 | 23 | 205 | 0.0 | 0.0 | 0.00 | 0.00 | 0.00 | 51 | 1018.2 |
| 20260503221507 | 24 | 205 | 0.0 | 0.0 | 0.00 | 0.00 | 0.00 | 48 | 1018.2 |
| 20260503221010 | 24 | 205 | 0.0 | 0.0 | 0.00 | 0.00 | 0.00 | 47 | 1018.2 |
| 20260503220507 | 24 | 205 | 0.0 | 0.0 | 0.00 | 0.00 | 0.00 | 45 | 1018.3 |
| 20260503220010 | 25 | 205 | 0.0 | 0.0 | 0.00 | 0.00 | 0.00 | 47 | 1018.4 |
| 20260503214509 | 25 | 165 | 0.0 | 6.4 | 0.00 | 0.00 | 0.00 | 44 | 1018.4 |
| 20260503214009 | 25 | 192 | 1.6 | 4.8 | 0.00 | 0.00 | 0.00 | 44 | 1018.5 |
| 20260503213506 | 26 | 237 | 1.6 | 8.0 | 0.00 | 0.00 | 0.00 | 44 | 1018.7 |
| 20260503213009 | 26 | 26 | 3.2 | 8.0 | 0.00 | 0.00 | 0.00 | 45 | 1018.7 |
| 20260503212508 | 26 | 263 | 1.6 | 6.4 | 0.00 | 0.00 | 0.00 | 43 | 1018.6 |
| 20260503212009 | 26 | 204 | 1.6 | 6.4 | 0.00 | 0.00 | 0.00 | 43 | 1018.7 |
| 20260503211507 | 26 | 203 | 3.2 | 14.5 | 0.00 | 0.00 | 0.00 | 41 | 1018.9 |
| 20260503211008 | 26 | 213 | 4.8 | 14.5 | 0.00 | 0.00 | 0.00 | 42 | 1018.9 |
| 20260503210506 | 26 | 223 | 3.2 | 11.3 | 0.00 | 0.00 | 0.00 | 42 | 1018.9 |
| 20260503210008 | 26 | 208 | 1.6 | 4.8 | 0.00 | 0.00 | 0.00 | 41 | 1019.0 |
| 20260503205505 | 26 | 284 | 1.6 | 8.0 | 0.00 | 0.00 | 0.00 | 41 | 1019.1 |
| 20260503204507 | 26 | 200 | 3.2 | 8.0 | 0.00 | 0.00 | 0.00 | 43 | 1019.1 |
| 20260503204007 | 26 | 113 | 1.6 | 8.0 | 0.00 | 0.00 | 0.00 | 42 | 1019.2 |
| 20260503203007 | 26 | 158 | 1.6 | 6.4 | 0.00 | 0.00 | 0.00 | 44 | 1019.6 |
| 20260503202506 | 26 | 186 | 1.6 | 6.4 | 0.00 | 0.00 | 0.00 | 45 | 1019.6 |
| 20260503201506 | 26 | 13 | 1.6 | 4.8 | 0.00 | 0.00 | 0.00 | 42 | 1019.8 |
| 20260503201009 | 26 | 111 | 1.6 | 4.8 | 0.00 | 0.00 | 0.00 | 41 | 1019.8 |
| 20260503200507 | 26 | 213 | 0.0 | 4.8 | 0.00 | 0.00 | 0.00 | 43 | 1019.9 |
| 20260503200010 | 26 | 181 | 1.6 | 4.8 | 0.00 | 0.00 | 0.00 | 43 | 1019.9 |
| 20260503195506 | 26 | 154 | 3.2 | 4.8 | 0.00 | 0.00 | 0.00 | 42 | 1020.1 |
| 20260503195009 | 26 | 10 | 3.2 | 6.4 | 0.00 | 0.00 | 0.00 | 44 | 1020.1 |
| 20260503194006 | 26 | 215 | 1.6 | 8.0 | 0.00 | 0.00 | 0.00 | 45 | 1020.3 |
| 20260503193506 | 26 | 101 | 1.6 | 3.2 | 0.00 | 0.00 | 0.00 | 41 | 1020.3 |
| 20260503193010 | 27 | 150 | 1.6 | 6.4 | 0.00 | 0.00 | 0.00 | 43 | 1020.3 |
| 20260503192508 | 27 | 205 | 3.2 | 9.7 | 0.00 | 0.00 | 0.00 | 44 | 1020.7 |
| 20260503192008 | 26 | 205 | 3.2 | 9.7 | 0.00 | 0.00 | 0.00 | 43 | 1020.8 |
| 20260503191507 | 26 | 255 | 1.6 | 9.7 | 0.00 | 0.00 | 0.00 | 43 | 1020.8 |
| 20260503190507 | 26 | 218 | 1.6 | 6.4 | 0.00 | 0.00 | 0.00 | 45 | 1020.9 |
| 20260503190010 | 26 | 40 | 1.6 | 6.4 | 0.00 | 0.00 | 0.00 | 43 | 1021.0 |
| 20260503185506 | 26 | 211 | 1.6 | 6.4 | 0.00 | 0.00 | 0.00 | 42 | 1021.1 |
| 20260503185006 | 26 | 246 | 3.2 | 8.0 | 0.00 | 0.00 | 0.00 | 45 | 1021.1 |
| 20260503184507 | 26 | 221 | 3.2 | 11.3 | 0.00 | 0.00 | 0.00 | 45 | 1021.1 |
| 20260503184008 | 26 | 217 | 3.2 | 11.3 | 0.00 | 0.00 | 0.00 | 46 | 1021.1 |
| 20260503183505 | 26 | 337 | 3.2 | 8.0 | 0.00 | 0.00 | 0.00 | 44 | 1021.1 |
| 20260503182507 | 26 | 267 | 3.2 | 6.4 | 0.00 | 0.00 | 0.00 | 46 | 1021.3 |
| 20260503182008 | 26 | 254 | 3.2 | 9.7 | 0.00 | 0.00 | 0.00 | 44 | 1021.5 |
| 20260503181512 | 25 | 188 | 3.2 | 14.5 | 0.00 | 0.00 | 0.00 | 44 | 1021.5 |
| 20260503181007 | 26 | 220 | 4.8 | 14.5 | 0.00 | 0.00 | 0.00 | 43 | 1021.6 |
| 20260503180009 | 26 | 236 | 1.6 | 8.0 | 0.00 | 0.00 | 0.00 | 44 | 1021.7 |
| 20260503175506 | 25 | 346 | 3.2 | 6.4 | 0.00 | 0.00 | 0.00 | 43 | 1021.8 |
| 20260503174506 | 25 | 184 | 4.8 | 9.7 | 0.00 | 0.00 | 0.00 | 43 | 1021.9 |
| 20260503173508 | 25 | 231 | 1.6 | 9.7 | 0.00 | 0.00 | 0.00 | 48 | 1022.0 |
| 20260503173008 | 25 | 195 | 1.6 | 6.4 | 0.00 | 0.00 | 0.00 | 49 | 1022.1 |
| 20260503172507 | 25 | 254 | 3.2 | 8.0 | 0.00 | 0.00 | 0.00 | 46 | 1022.1 |
| 20260503172007 | 25 | 214 | 3.2 | 11.3 | 0.00 | 0.00 | 0.00 | 47 | 1022.2 |
| 20260503171508 | 25 | 182 | 3.2 | 6.4 | 0.00 | 0.00 | 0.00 | 48 | 1022.3 |
| 20260503171008 | 25 | 196 | 3.2 | 8.0 | 0.00 | 0.00 | 0.00 | 48 | 1022.5 |
| 20260503151008 | 20 | 244 | 0.0 | 4.8 | 0.00 | 0.00 | 0.00 | 68 | 1022.8 |
| 20260503150505 | 20 | 188 | 0.0 | 0.0 | 0.00 | 0.00 | 0.00 | 72 | 1022.8 |
| 20260503131006 | 9 | 5 | 0.0 | 0.0 | 0.00 | 0.00 | 0.00 | 94 | 1022.7 |
| 20260503130505 | 9 | 5 | 0.0 | 0.0 | 0.00 | 0.00 | 0.00 | 93 | 1022.6 |
| 20260503110506 | 7 | 5 | 0.0 | 0.0 | 0.00 | 0.00 | 0.00 | 91 | 1021.2 |
| 20260503090506 | 8 | 5 | 0.0 | 0.0 | 0.00 | 0.00 | 0.00 | 90 | 1020.9 |
| 20260503081005 | 9 | 5 | 0.0 | 0.0 | 0.00 | 0.00 | 0.00 | 90 | 1020.5 |
| 20260503080505 | 9 | 5 | 0.0 | 0.0 | 0.00 | 0.00 | 0.00 | 90 | 1020.4 |
| 20260503072506 | 9 | 5 | 0.0 | 0.0 | 0.00 | 0.00 | 0.00 | 89 | 1020.3 |
| 20260503072005 | 9 | 5 | 0.0 | 0.0 | 0.00 | 0.00 | 0.00 | 89 | 1020.2 |
| 20260503071507 | 9 | 5 | 0.0 | 0.0 | 0.00 | 0.00 | 0.00 | 89 | 1020.1 |
| 20260503070505 | 10 | 5 | 0.0 | 0.0 | 0.00 | 0.00 | 0.00 | 89 | 1020.1 |